English version Home page |
Updated on September 3, 2006 |
|
軌道要素Epoch 2004 June 4.0 TT = JDT 2453160.5 T 2004 May 15.96533 TT MPC q 0.9619569 (2000.0) P Q z -0.0006904 Peri. 1.20383 -0.86516743 -0.06629308 +/-0.0000040 Node 210.27863 -0.46794807 -0.24966639 e 1.0006642 Incl. 99.64255 -0.18030507 +0.96606000 >From 1106 observations 2001 Aug. 24-2004 June 11, mean residual 0".77. Non- gravitational parameters A1 = +1.49 +/- 0.03, A2 = -0.2965 +/- 0.0282.
|
星図
|
光度変化m1 = 3.5 + 5 logΔ + 10.0 log r [ ,-400] ( 〜2003年 4月11日) m1 = 4.6 + 5 logΔ + 8.6 log r [-400, -40] (2003年 4月11日〜2004年 4月 5日) m1 = 5.9 + 5 logΔ - 8.5 log r [ -40, -10] (2004年 4月 5日〜2004年 5月 5日) m1 = 5.7 + 5 logΔ + 10.0 log r [ -10, 30] (2004年 5月 5日〜2004年 6月14日) m1 = 5.8 + 5 logΔ + 4.0 log r [ 30, 85] (2004年 6月14日〜2004年 8月 8日) m1 = 3.5 + 5 logΔ + 14.0 log r [ 85, 160] (2004年 8月 8日〜2004年10月22日) m1 = 4.6 + 5 logΔ + 11.5 log r [ 160, 400] (2004年10月22日〜2005年 6月19日) m1 = 9.2 + 5 logΔ + 5.0 log r [ 400, ] (2005年 6月19日〜 ) ※ 灰色の曲線は、m1 = 4.6 + 5 logΔ + 8.6 log r の光度曲線です。
|
軌道要素はM.P.E.C. 2004-L37に掲載されたものです。
|